Time,TemperatureF,DewpointF,PressureIn,WindDirection,WindDirectionDegrees,WindSpeedMPH,WindSpeedGustMPH,Humidity,HourlyPrecipIn,Conditions,Clouds,dailyrainin,SoftwareType,DateUTC
2013-02-28 00:07:00,32.1,31.0,29.61,ENE,70,7.0,-999.0,97,-99.99,,,0.00,weatherlink.com 1.10,2013-02-28 05:07:00,
2013-02-28 00:22:00,32.1,31.0,29.61,NNW,327,0.0,-999.0,97,-99.99,,,0.00,weatherlink.com 1.10,2013-02-28 05:22:00,
2013-02-28 00:37:00,32.0,31.0,29.62,NNW,332,0.0,-999.0,97,-99.99,,,0.00,weatherlink.com 1.10,2013-02-28 05:37:00,
2013-02-28 00:52:00,32.0,31.0,29.62,North,355,0.0,-999.0,97,-99.99,,,0.00,weatherlink.com 1.10,2013-02-28 05:52:00,
2013-02-28 01:07:00,31.9,31.0,29.62,NE,36,1.0,-999.0,97,-99.99,,,0.00,weatherlink.com 1.10,2013-02-28 06:07:00,
2013-02-28 01:22:00,31.9,31.0,29.62,NE,36,0.0,-999.0,97,-99.99,,,0.00,weatherlink.com 1.10,2013-02-28 06:22:00,
2013-02-28 01:37:00,31.8,31.0,29.62,NE,36,0.0,-999.0,97,-99.99,,,0.00,weatherlink.com 1.10,2013-02-28 06:37:00,
2013-02-28 01:52:00,31.8,31.0,29.62,NNW,338,0.0,-999.0,97,-99.99,,,0.00,weatherlink.com 1.10,2013-02-28 06:52:00,
2013-02-28 02:07:00,31.7,31.0,29.61,North,360,0.0,-999.0,97,-99.99,,,0.00,weatherlink.com 1.10,2013-02-28 07:07:00,
2013-02-28 02:22:00,31.7,31.0,29.61,North,360,0.0,-999.0,97,-99.99,,,0.00,weatherlink.com 1.10,2013-02-28 07:22:00,
2013-02-28 02:37:00,31.6,31.0,29.60,North,360,1.0,-999.0,98,-99.99,,,0.00,weatherlink.com 1.10,2013-02-28 07:37:00,
2013-02-28 02:52:00,31.5,31.0,29.61,WNW,298,0.0,-999.0,98,-99.99,,,0.00,weatherlink.com 1.10,2013-02-28 07:52:00,
2013-02-28 03:07:00,31.4,31.0,29.60,WNW,298,0.0,-999.0,97,-99.99,,,0.00,weatherlink.com 1.10,2013-02-28 08:07:00,
2013-02-28 03:23:00,31.2,31.0,29.61,WNW,298,0.0,-999.0,97,-99.99,,,0.00,weatherlink.com 1.10,2013-02-28 08:23:00,
2013-02-28 03:38:00,31.0,31.0,29.61,WNW,298,0.0,-999.0,98,-99.99,,,0.00,weatherlink.com 1.10,2013-02-28 08:38:00,
2013-02-28 03:53:00,30.8,30.0,29.61,WNW,298,0.0,-999.0,98,-99.99,,,0.00,weatherlink.com 1.10,2013-02-28 08:53:00,
2013-02-28 04:08:00,30.6,30.0,29.61,WNW,298,0.0,-999.0,97,-99.99,,,0.00,weatherlink.com 1.10,2013-02-28 09:08:00,
2013-02-28 04:23:00,30.6,30.0,29.62,North,351,0.0,-999.0,97,-99.99,,,0.00,weatherlink.com 1.10,2013-02-28 09:23:00,
2013-02-28 04:38:00,30.5,30.0,29.61,North,351,0.0,-999.0,98,-99.99,,,0.00,weatherlink.com 1.10,2013-02-28 09:38:00,
2013-02-28 04:53:00,30.4,30.0,29.62,North,351,0.0,-999.0,98,-99.99,,,0.00,weatherlink.com 1.10,2013-02-28 09:53:00,
2013-02-28 05:08:00,30.3,30.0,29.63,North,351,0.0,-999.0,98,-99.99,,,0.00,weatherlink.com 1.10,2013-02-28 10:08:00,
2013-02-28 05:23:00,30.3,30.0,29.63,North,351,0.0,-999.0,98,-99.99,,,0.00,weatherlink.com 1.10,2013-02-28 10:23:00,
2013-02-28 05:38:00,30.2,30.0,29.64,North,351,0.0,-999.0,98,-99.99,,,0.00,weatherlink.com 1.10,2013-02-28 10:38:00,
2013-02-28 05:53:00,30.1,29.0,29.64,North,351,1.0,-999.0,97,-99.99,,,0.00,weatherlink.com 1.10,2013-02-28 10:53:00,
2013-02-28 06:08:00,30.0,29.0,29.64,NNW,335,0.0,-999.0,97,-99.99,,,0.00,weatherlink.com 1.10,2013-02-28 11:08:00,
2013-02-28 06:23:00,30.0,29.0,29.63,NNW,335,0.0,-999.0,97,-99.99,,,0.00,weatherlink.com 1.10,2013-02-28 11:23:00,
2013-02-28 06:38:00,30.0,29.0,29.64,NNW,335,0.0,-999.0,97,-99.99,,,0.00,weatherlink.com 1.10,2013-02-28 11:38:00,
2013-02-28 06:53:00,29.9,29.0,29.64,NNW,335,0.0,-999.0,98,-99.99,,,0.00,weatherlink.com 1.10,2013-02-28 11:53:00,
2013-02-28 07:08:00,29.9,29.0,29.63,NNW,335,0.0,-999.0,97,-99.99,,,0.00,weatherlink.com 1.10,2013-02-28 12:08:00,
2013-02-28 07:23:00,30.3,30.0,29.63,NNW,335,0.0,-999.0,98,-99.99,,,0.00,weatherlink.com 1.10,2013-02-28 12:23:00,
2013-02-28 07:38:00,30.4,30.0,29.62,NNW,335,0.0,-999.0,98,-99.99,,,0.00,weatherlink.com 1.10,2013-02-28 12:38:00,
2013-02-28 07:53:00,30.6,30.0,29.63,NNW,335,0.0,-999.0,97,-99.99,,,0.00,weatherlink.com 1.10,2013-02-28 12:53:00,
2013-02-28 08:08:00,30.9,30.0,29.64,NNW,335,0.0,-999.0,98,-99.99,,,0.00,weatherlink.com 1.10,2013-02-28 13:08:00,
2013-02-28 08:23:00,31.0,31.0,29.64,WSW,254,0.0,-999.0,98,-99.99,,,0.00,weatherlink.com 1.10,2013-02-28 13:23:00,
2013-02-28 08:38:00,31.0,31.0,29.65,WSW,254,0.0,-999.0,98,-99.99,,,0.00,weatherlink.com 1.10,2013-02-28 13:38:00,
2013-02-28 08:53:00,31.2,31.0,29.65,WSW,254,0.0,-999.0,97,-99.99,,,0.01,weatherlink.com 1.10,2013-02-28 13:53:00,
2013-02-28 09:08:00,31.4,31.0,29.65,SSW,211,0.0,-999.0,98,-99.99,,,0.02,weatherlink.com 1.10,2013-02-28 14:08:00,
2013-02-28 09:23:00,31.5,31.0,29.65,SW,219,1.0,-999.0,97,-99.99,,,0.02,weatherlink.com 1.10,2013-02-28 14:23:00,
2013-02-28 09:38:00,31.8,31.0,29.64,SW,232,0.0,-999.0,97,-99.99,,,0.02,weatherlink.com 1.10,2013-02-28 14:38:00,
2013-02-28 09:53:00,32.4,32.0,29.64,SW,232,0.0,-999.0,97,-99.99,,,0.02,weatherlink.com 1.10,2013-02-28 14:53:00,
2013-02-28 10:08:00,32.5,32.0,29.65,SW,232,2.0,-999.0,97,-99.99,,,0.03,weatherlink.com 1.10,2013-02-28 15:08:00,
2013-02-28 10:23:00,32.4,32.0,29.65,SW,232,0.0,-999.0,97,-99.99,,,0.03,weatherlink.com 1.10,2013-02-28 15:23:00,
2013-02-28 10:38:00,32.6,32.0,29.64,SW,233,0.0,-999.0,97,-99.99,,,0.03,weatherlink.com 1.10,2013-02-28 15:38:00,
2013-02-28 10:53:00,33.0,32.0,29.64,SW,233,0.0,-999.0,97,-99.99,,,0.03,weatherlink.com 1.10,2013-02-28 15:53:00,
2013-02-28 11:08:00,33.5,33.0,29.64,SW,233,0.0,-999.0,97,-99.99,,,0.04,weatherlink.com 1.10,2013-02-28 16:08:00,
2013-02-28 11:23:00,34.0,33.0,29.63,SW,233,0.0,-999.0,97,-99.99,,,0.04,weatherlink.com 1.10,2013-02-28 16:23:00,
2013-02-28 11:38:00,34.5,34.0,29.63,NNW,330,0.0,-999.0,97,-99.99,,,0.04,weatherlink.com 1.10,2013-02-28 16:38:00,
2013-02-28 11:53:00,35.9,35.0,29.62,NNW,330,2.0,-999.0,97,-99.99,,,0.05,weatherlink.com 1.10,2013-02-28 16:53:00,
2013-02-28 12:08:00,37.3,36.0,29.62,NW,317,0.0,-999.0,95,-99.99,,,0.05,weatherlink.com 1.10,2013-02-28 17:08:00,
2013-02-28 12:23:00,38.7,37.0,29.61,West,281,3.0,-999.0,94,-99.99,,,0.05,weatherlink.com 1.10,2013-02-28 17:23:00,
2013-02-28 12:38:00,38.4,36.0,29.60,NW,326,2.0,-999.0,92,-99.99,,,0.06,weatherlink.com 1.10,2013-02-28 17:38:00,
2013-02-28 12:53:00,39.3,37.0,29.60,NNW,337,2.0,-999.0,91,-99.99,,,0.06,weatherlink.com 1.10,2013-02-28 17:53:00,
2013-02-28 13:08:00,39.1,37.0,29.60,North,360,0.0,-999.0,91,-99.99,,,0.06,weatherlink.com 1.10,2013-02-28 18:08:00,
2013-02-28 13:23:00,38.9,37.0,29.59,North,360,0.0,-999.0,91,-99.99,,,0.06,weatherlink.com 1.10,2013-02-28 18:23:00,
2013-02-28 13:39:00,38.7,37.0,29.59,North,360,0.0,-999.0,92,-99.99,,,0.07,weatherlink.com 1.10,2013-02-28 18:39:00,
2013-02-28 13:53:00,38.7,37.0,29.59,North,360,0.0,-999.0,92,-99.99,,,0.07,weatherlink.com 1.10,2013-02-28 18:53:00,
2013-02-28 14:09:00,38.7,37.0,29.59,North,355,0.0,-999.0,93,-99.99,,,0.07,weatherlink.com 1.10,2013-02-28 19:09:00,
2013-02-28 14:24:00,39.1,37.0,29.58,North,355,0.0,-999.0,93,-99.99,,,0.07,weatherlink.com 1.10,2013-02-28 19:24:00,
2013-02-28 14:39:00,39.1,37.0,29.58,North,355,0.0,-999.0,92,-99.99,,,0.07,weatherlink.com 1.10,2013-02-28 19:39:00,
2013-02-28 14:54:00,39.1,37.0,29.58,NNE,32,0.0,-999.0,90,-99.99,,,0.07,weatherlink.com 1.10,2013-02-28 19:54:00,
2013-02-28 15:09:00,39.2,37.0,29.57,NNE,32,1.0,-999.0,90,-99.99,,,0.07,weatherlink.com 1.10,2013-02-28 20:09:00,
2013-02-28 15:24:00,39.7,37.0,29.57,NNE,32,0.0,-999.0,91,-99.99,,,0.07,weatherlink.com 1.10,2013-02-28 20:24:00,
2013-02-28 15:39:00,39.2,37.0,29.58,NNE,32,0.0,-999.0,90,-99.99,,,0.07,weatherlink.com 1.10,2013-02-28 20:39:00,
2013-02-28 15:54:00,38.6,36.0,29.58,NNE,32,0.0,-999.0,91,-99.99,,,0.07,weatherlink.com 1.10,2013-02-28 20:54:00,
2013-02-28 16:09:00,38.0,36.0,29.58,NNE,33,0.0,-999.0,92,-99.99,,,0.07,weatherlink.com 1.10,2013-02-28 21:09:00,
2013-02-28 16:24:00,37.6,36.0,29.58,NW,323,0.0,-999.0,92,-99.99,,,0.07,weatherlink.com 1.10,2013-02-28 21:24:00,
2013-02-28 16:39:00,37.2,35.0,29.58,NW,323,0.0,-999.0,92,-99.99,,,0.07,weatherlink.com 1.10,2013-02-28 21:39:00,
2013-02-28 16:54:00,37.1,35.0,29.58,NW,323,0.0,-999.0,92,-99.99,,,0.07,weatherlink.com 1.10,2013-02-28 21:54:00,
2013-02-28 17:09:00,36.7,35.0,29.58,NNW,334,0.0,-999.0,92,-99.99,,,0.07,weatherlink.com 1.10,2013-02-28 22:09:00,
2013-02-28 17:24:00,36.2,34.0,29.58,NW,305,0.0,-999.0,92,-99.99,,,0.07,weatherlink.com 1.10,2013-02-28 22:24:00,
2013-02-28 17:39:00,35.8,34.0,29.58,NW,305,0.0,-999.0,93,-99.99,,,0.07,weatherlink.com 1.10,2013-02-28 22:39:00,
2013-02-28 17:54:00,34.9,33.0,29.58,NW,305,0.0,-999.0,94,-99.99,,,0.07,weatherlink.com 1.10,2013-02-28 22:54:00,
2013-02-28 18:09:00,34.1,33.0,29.58,NW,305,0.0,-999.0,95,-99.99,,,0.07,weatherlink.com 1.10,2013-02-28 23:09:00,
2013-02-28 18:24:00,33.3,32.0,29.58,NW,305,0.0,-999.0,95,-99.99,,,0.07,weatherlink.com 1.10,2013-02-28 23:24:00,
2013-02-28 18:39:00,32.9,32.0,29.58,NW,305,0.0,-999.0,96,-99.99,,,0.07,weatherlink.com 1.10,2013-02-28 23:39:00,
2013-02-28 18:54:00,32.1,31.0,29.58,NW,305,0.0,-999.0,96,-99.99,,,0.07,weatherlink.com 1.10,2013-02-28 23:54:00,
2013-02-28 19:09:00,31.4,30.0,29.58,NW,305,0.0,-999.0,96,-99.99,,,0.07,weatherlink.com 1.10,2013-03-01 00:09:00,
2013-02-28 19:24:00,30.8,30.0,29.58,NW,305,0.0,-999.0,96,-99.99,,,0.07,weatherlink.com 1.10,2013-03-01 00:24:00,
2013-02-28 19:39:00,30.3,29.0,29.57,NE,40,1.0,-999.0,96,-99.99,,,0.07,weatherlink.com 1.10,2013-03-01 00:39:00,
2013-02-28 19:54:00,30.4,30.0,29.58,NE,40,0.0,-999.0,97,-99.99,,,0.07,weatherlink.com 1.10,2013-03-01 00:54:00,
2013-02-28 20:09:00,30.4,30.0,29.58,NE,40,0.0,-999.0,97,-99.99,,,0.07,weatherlink.com 1.10,2013-03-01 01:09:00,
2013-02-28 20:24:00,30.0,29.0,29.58,NE,40,0.0,-999.0,97,-99.99,,,0.07,weatherlink.com 1.10,2013-03-01 01:24:00,
2013-02-28 20:39:00,30.0,29.0,29.58,NE,40,0.0,-999.0,97,-99.99,,,0.07,weatherlink.com 1.10,2013-03-01 01:39:00,
2013-02-28 20:54:00,30.5,30.0,29.57,NE,40,0.0,-999.0,97,-99.99,,,0.07,weatherlink.com 1.10,2013-03-01 01:54:00,
2013-02-28 21:09:00,30.3,30.0,29.58,NE,40,0.0,-999.0,97,-99.99,,,0.07,weatherlink.com 1.10,2013-03-01 02:09:00,
2013-02-28 21:24:00,29.9,29.0,29.58,NE,40,0.0,-999.0,97,-99.99,,,0.07,weatherlink.com 1.10,2013-03-01 02:24:00,
2013-02-28 21:39:00,29.8,29.0,29.58,NE,40,0.0,-999.0,97,-99.99,,,0.07,weatherlink.com 1.10,2013-03-01 02:39:00,
2013-02-28 21:54:00,29.7,29.0,29.58,NE,40,1.0,-999.0,97,-99.99,,,0.07,weatherlink.com 1.10,2013-03-01 02:54:00,
2013-02-28 22:09:00,29.6,29.0,29.58,NE,40,0.0,-999.0,97,-99.99,,,0.07,weatherlink.com 1.10,2013-03-01 03:09:00,
2013-02-28 22:24:00,29.4,29.0,29.58,NE,40,0.0,-999.0,97,-99.99,,,0.07,weatherlink.com 1.10,2013-03-01 03:24:00,
2013-02-28 22:39:00,29.2,29.0,29.58,NE,40,0.0,-999.0,98,-99.99,,,0.07,weatherlink.com 1.10,2013-03-01 03:39:00,
2013-02-28 22:54:00,29.2,29.0,29.57,NE,40,0.0,-999.0,98,-99.99,,,0.07,weatherlink.com 1.10,2013-03-01 03:54:00,
2013-02-28 23:09:00,29.2,29.0,29.57,NE,40,0.0,-999.0,97,-99.99,,,0.07,weatherlink.com 1.10,2013-03-01 04:09:00,
2013-02-28 23:24:00,29.3,29.0,29.57,NE,40,0.0,-999.0,98,-99.99,,,0.07,weatherlink.com 1.10,2013-03-01 04:24:00,
2013-02-28 23:39:00,29.5,29.0,29.57,NE,50,0.0,-999.0,98,-99.99,,,0.07,weatherlink.com 1.10,2013-03-01 04:39:00,
2013-02-28 23:54:00,29.5,29.0,29.57,NE,50,0.0,-999.0,98,-99.99,,,0.07,weatherlink.com 1.10,2013-03-01 04:54:00,